| time (UTC) | temp F | wind direction | speed MPH | gust MPH | rain 1hr in | rain 24hr in | rain mn in | humidity % | barometer mb |
| 20260905034602 | 44 | 304 | 1.0 | 3.0 | 0.00 | 0.00 | 0.00 | 98 | 993.7 |
| 20260905033541 | 45 | 300 | 1.0 | 2.0 | 0.00 | 0.00 | 0.00 | 98 | 993.7 |
| 20260905032540 | 45 | 313 | 2.0 | 3.0 | 0.00 | 0.00 | 0.00 | 98 | 993.7 |
| 20260905031539 | 45 | 293 | 1.0 | 2.0 | 0.00 | 0.00 | 0.00 | 98 | 993.7 |
| 20260905030538 | 45 | 306 | 2.0 | 2.0 | 0.00 | 0.00 | 0.00 | 98 | 993.7 |
| 20260905025537 | 45 | 288 | 2.0 | 2.0 | 0.00 | 0.00 | 0.00 | 98 | 993.7 |
| 20260905024536 | 45 | 323 | 2.0 | 3.0 | 0.00 | 0.00 | 0.00 | 98 | 993.7 |
| 20260905023535 | 45 | 336 | 1.0 | 2.0 | 0.00 | 0.00 | 0.00 | 98 | 993.7 |
| 20260905022534 | 45 | 343 | 2.0 | 2.0 | 0.00 | 0.00 | 0.00 | 98 | 993.7 |
| 20260905021553 | 45 | 354 | 1.0 | 2.0 | 0.00 | 0.00 | 0.00 | 98 | 993.7 |
| 20260905020532 | 45 | 327 | 2.0 | 2.0 | 0.00 | 0.00 | 0.00 | 98 | 993.6 |
| 20260905015531 | 46 | 331 | 2.0 | 3.0 | 0.00 | 0.00 | 0.00 | 98 | 993.6 |
| 20260905014530 | 46 | 320 | 2.0 | 4.0 | 0.00 | 0.00 | 0.00 | 98 | 993.7 |
| 20260905013529 | 45 | 325 | 3.0 | 4.0 | 0.00 | 0.00 | 0.00 | 98 | 993.7 |
| 20260905012548 | 46 | 292 | 3.0 | 4.0 | 0.00 | 0.00 | 0.00 | 98 | 993.7 |
| 20260905011527 | 45 | 313 | 2.0 | 3.0 | 0.00 | 0.00 | 0.00 | 98 | 993.7 |
| 20260905010525 | 46 | 327 | 3.0 | 3.0 | 0.00 | 0.00 | 0.00 | 98 | 993.7 |
| 20260905005545 | 46 | 303 | 2.0 | 3.0 | 0.00 | 0.00 | 0.00 | 98 | 993.6 |
| 20260905004524 | 47 | 296 | 2.0 | 2.0 | 0.00 | 0.00 | 0.00 | 98 | 993.6 |
| 20260905003522 | 48 | 310 | 1.0 | 2.0 | 0.00 | 0.00 | 0.00 | 98 | 993.6 |
| 20260905002602 | 49 | 277 | 1.0 | 1.0 | 0.00 | 0.00 | 0.00 | 98 | 993.7 |
| 20260905001520 | 49 | 33 | 0.0 | 2.0 | 0.00 | 0.00 | 0.00 | 98 | 993.7 |
| 20260905000540 | 49 | 58 | 1.0 | 2.0 | 0.00 | 0.00 | 0.00 | 98 | 993.8 |
| 20260904235539 | 48 | 88 | 2.0 | 3.0 | 0.00 | 0.00 | 0.00 | 98 | 993.8 |
| 20260904234538 | 48 | 92 | 3.0 | 3.0 | 0.00 | 0.00 | 0.00 | 98 | 993.9 |
| 20260904233517 | 49 | 92 | 3.0 | 4.0 | 0.00 | 0.00 | 0.00 | 97 | 994.0 |
| 20260904232516 | 49 | 87 | 2.0 | 4.0 | 0.00 | 0.00 | 0.00 | 97 | 994.1 |
| 20260904231545 | 49 | 317 | 0.0 | 1.0 | 0.00 | 0.00 | 0.00 | 97 | 994.2 |
| 20260904230544 | 50 | 281 | 0.0 | 1.0 | 0.00 | 0.00 | 0.00 | 96 | 994.2 |
| 20260904225543 | 50 | 231 | 1.0 | 2.0 | 0.00 | 0.00 | 0.00 | 95 | 994.3 |
| 20260904224542 | 51 | 246 | 2.0 | 3.0 | 0.00 | 0.00 | 0.00 | 93 | 994.3 |
| 20260904223541 | 52 | 268 | 3.0 | 4.0 | 0.00 | 0.00 | 0.00 | 94 | 994.4 |
| 20260904222600 | 52 | 274 | 3.0 | 5.0 | 0.00 | 0.00 | 0.00 | 93 | 994.5 |
| 20260904221539 | 53 | 260 | 4.0 | 5.0 | 0.00 | 0.00 | 0.00 | 92 | 994.5 |
| 20260904220539 | 53 | 249 | 5.0 | 5.0 | 0.00 | 0.00 | 0.00 | 92 | 994.6 |
| 20260904215538 | 53 | 247 | 4.0 | 5.0 | 0.00 | 0.00 | 0.00 | 91 | 994.7 |
| 20260904214538 | 53 | 244 | 4.0 | 5.0 | 0.00 | 0.00 | 0.00 | 91 | 994.7 |
| 20260904213537 | 53 | 242 | 4.0 | 5.0 | 0.00 | 0.00 | 0.00 | 91 | 994.8 |
| 20260904212536 | 52 | 246 | 4.0 | 6.0 | 0.00 | 0.00 | 0.00 | 92 | 994.9 |
| 20260904211534 | 53 | 256 | 4.0 | 5.0 | 0.00 | 0.00 | 0.00 | 91 | 995.0 |
| 20260904210533 | 53 | 240 | 4.0 | 6.0 | 0.00 | 0.00 | 0.00 | 90 | 995.0 |
| 20260904205532 | 53 | 224 | 5.0 | 7.0 | 0.00 | 0.00 | 0.00 | 89 | 995.1 |
| 20260904204552 | 53 | 212 | 5.0 | 7.0 | 0.00 | 0.00 | 0.00 | 88 | 995.2 |
| 20260904203531 | 54 | 206 | 5.0 | 7.0 | 0.00 | 0.00 | 0.00 | 87 | 995.2 |
| 20260904202530 | 54 | 205 | 4.0 | 7.0 | 0.00 | 0.00 | 0.00 | 87 | 995.3 |
| 20260904201529 | 54 | 210 | 5.0 | 8.0 | 0.00 | 0.00 | 0.00 | 88 | 995.4 |
| 20260904200548 | 54 | 205 | 3.0 | 7.0 | 0.00 | 0.00 | 0.00 | 87 | 995.4 |
| 20260904195527 | 53 | 184 | 2.0 | 5.0 | 0.00 | 0.00 | 0.00 | 90 | 995.5 |
| 20260904194526 | 53 | 168 | 3.0 | 5.0 | 0.00 | 0.00 | 0.00 | 90 | 995.6 |
| 20260904193525 | 54 | 204 | 4.0 | 6.0 | 0.00 | 0.00 | 0.00 | 86 | 995.7 |
| 20260904192524 | 54 | 193 | 4.0 | 6.0 | 0.00 | 0.00 | 0.00 | 87 | 995.7 |
| 20260904191522 | 53 | 150 | 3.0 | 6.0 | 0.00 | 0.00 | 0.00 | 89 | 995.9 |
| 20260904190607 | 53 | 141 | 3.0 | 4.0 | 0.00 | 0.00 | 0.00 | 89 | 995.9 |
| 20260904185520 | 54 | 154 | 3.0 | 4.0 | 0.00 | 0.00 | 0.00 | 87 | 996.1 |
| 20260904184519 | 54 | 155 | 3.0 | 5.0 | 0.00 | 0.00 | 0.00 | 86 | 996.2 |
| 20260904183518 | 54 | 168 | 4.0 | 7.0 | 0.00 | 0.00 | 0.00 | 84 | 996.2 |
| 20260904182518 | 55 | 181 | 5.0 | 8.0 | 0.00 | 0.00 | 0.00 | 82 | 996.3 |
| 20260904181518 | 55 | 192 | 5.0 | 9.0 | 0.00 | 0.00 | 0.00 | 80 | 996.4 |
| 20260904180515 | 56 | 200 | 6.0 | 10.0 | 0.00 | 0.00 | 0.00 | 79 | 996.4 |
| 20260904175546 | 55 | 202 | 6.0 | 10.0 | 0.00 | 0.00 | 0.00 | 79 | 996.4 |
| 20260904174546 | 55 | 204 | 5.0 | 8.0 | 0.00 | 0.00 | 0.00 | 80 | 996.5 |
| 20260904173544 | 55 | 194 | 5.0 | 9.0 | 0.00 | 0.00 | 0.00 | 80 | 996.5 |
| 20260904172545 | 55 | 187 | 4.0 | 7.0 | 0.00 | 0.00 | 0.00 | 82 | 996.5 |
| 20260904171602 | 55 | 185 | 4.0 | 6.0 | 0.00 | 0.00 | 0.00 | 82 | 996.5 |
| 20260904170541 | 56 | 177 | 4.0 | 6.0 | 0.00 | 0.00 | 0.00 | 80 | 996.5 |
| 20260904165540 | 56 | 177 | 3.0 | 7.0 | 0.00 | 0.00 | 0.00 | 79 | 996.5 |
| 20260904164538 | 57 | 189 | 5.0 | 8.0 | 0.00 | 0.00 | 0.00 | 77 | 996.6 |
| 20260904163537 | 57 | 194 | 5.0 | 9.0 | 0.00 | 0.00 | 0.00 | 76 | 996.6 |
| 20260904162537 | 58 | 199 | 6.0 | 9.0 | 0.00 | 0.00 | 0.00 | 75 | 996.7 |
| 20260904161535 | 58 | 188 | 4.0 | 6.0 | 0.00 | 0.00 | 0.00 | 74 | 996.7 |
| 20260904160535 | 59 | 192 | 4.0 | 8.0 | 0.00 | 0.00 | 0.00 | 73 | 996.8 |
| 20260904155533 | 59 | 200 | 5.0 | 9.0 | 0.00 | 0.00 | 0.00 | 71 | 996.9 |
| 20260904154534 | 59 | 194 | 6.0 | 9.0 | 0.00 | 0.00 | 0.00 | 72 | 996.9 |
| 20260904153551 | 59 | 197 | 6.0 | 8.0 | 0.00 | 0.00 | 0.00 | 71 | 997.0 |
| 20260904152530 | 59 | 183 | 7.0 | 11.0 | 0.00 | 0.00 | 0.00 | 72 | 997.0 |
| 20260904151529 | 59 | 171 | 6.0 | 11.0 | 0.00 | 0.00 | 0.00 | 73 | 997.0 |
| 20260904150528 | 59 | 170 | 5.0 | 9.0 | 0.00 | 0.00 | 0.00 | 73 | 997.0 |
| 20260904145527 | 58 | 188 | 6.0 | 10.0 | 0.00 | 0.00 | 0.00 | 72 | 997.1 |
| 20260904144526 | 58 | 182 | 6.0 | 10.0 | 0.00 | 0.00 | 0.00 | 69 | 997.1 |
| 20260904143525 | 59 | 182 | 6.0 | 11.0 | 0.00 | 0.00 | 0.00 | 66 | 997.1 |
| 20260904142625 | 60 | 177 | 5.0 | 10.0 | 0.00 | 0.00 | 0.00 | 68 | 997.1 |
| 20260904141544 | 62 | 173 | 3.0 | 6.0 | 0.00 | 0.00 | 0.00 | 60 | 997.1 |
| 20260904140522 | 62 | 278 | 2.0 | 4.0 | 0.00 | 0.00 | 0.00 | 57 | 997.2 |
| 20260904135521 | 63 | 273 | 2.0 | 5.0 | 0.00 | 0.00 | 0.00 | 54 | 997.2 |
| 20260904134520 | 63 | 319 | 1.0 | 4.0 | 0.00 | 0.00 | 0.00 | 55 | 997.2 |
| 20260904133519 | 63 | 32 | 2.0 | 4.0 | 0.00 | 0.00 | 0.00 | 53 | 997.2 |
| 20260904132520 | 62 | 21 | 2.0 | 4.0 | 0.00 | 0.00 | 0.00 | 59 | 997.3 |
| 20260904131538 | 61 | 344 | 3.0 | 6.0 | 0.00 | 0.00 | 0.00 | 60 | 997.4 |
| 20260904130519 | 61 | 329 | 3.0 | 6.0 | 0.00 | 0.00 | 0.00 | 63 | 997.5 |
| 20260904125517 | 59 | 344 | 2.0 | 3.0 | 0.00 | 0.00 | 0.00 | 68 | 997.5 |
| 20260904124546 | 59 | 20 | 1.0 | 3.0 | 0.00 | 0.00 | 0.00 | 72 | 997.6 |
| 20260904123545 | 58 | 289 | 3.0 | 6.0 | 0.00 | 0.00 | 0.00 | 74 | 997.7 |
| 20260904122545 | 58 | 288 | 4.0 | 9.0 | 0.00 | 0.00 | 0.00 | 71 | 997.8 |
| 20260904121603 | 58 | 300 | 5.0 | 10.0 | 0.00 | 0.00 | 0.00 | 69 | 997.8 |
| 20260904120543 | 58 | 330 | 6.0 | 10.0 | 0.00 | 0.00 | 0.00 | 69 | 997.8 |
| 20260904115602 | 59 | 348 | 7.0 | 12.0 | 0.00 | 0.00 | 0.00 | 65 | 997.7 |
| 20260904114541 | 60 | 346 | 8.0 | 15.0 | 0.00 | 0.00 | 0.00 | 62 | 997.7 |
| 20260904113600 | 62 | 339 | 4.0 | 11.0 | 0.00 | 0.00 | 0.00 | 54 | 997.6 |
| 20260904112539 | 62 | 8 | 5.0 | 7.0 | 0.00 | 0.00 | 0.00 | 53 | 997.5 |
| 20260904111537 | 63 | 334 | 4.0 | 6.0 | 0.00 | 0.00 | 0.00 | 52 | 997.5 |
| 20260904110537 | 62 | 307 | 4.0 | 6.0 | 0.00 | 0.00 | 0.00 | 51 | 997.5 |
| 20260904105556 | 64 | 283 | 4.0 | 8.0 | 0.00 | 0.00 | 0.00 | 49 | 997.6 |
| 20260904104535 | 64 | 269 | 4.0 | 8.0 | 0.00 | 0.00 | 0.00 | 50 | 997.6 |
| 20260904103554 | 65 | 12 | 3.0 | 6.0 | 0.00 | 0.00 | 0.00 | 50 | 997.7 |
| 20260904102533 | 64 | 35 | 4.0 | 7.0 | 0.00 | 0.00 | 0.00 | 52 | 997.7 |
| 20260904101612 | 63 | 339 | 3.0 | 7.0 | 0.00 | 0.00 | 0.00 | 52 | 997.7 |
| 20260904100531 | 63 | 300 | 3.0 | 7.0 | 0.00 | 0.00 | 0.00 | 50 | 997.8 |
| 20260904095530 | 63 | 280 | 4.0 | 7.0 | 0.00 | 0.00 | 0.00 | 51 | 997.8 |
| 20260904094528 | 63 | 302 | 4.0 | 7.0 | 0.00 | 0.00 | 0.00 | 54 | 998.0 |
| 20260904093528 | 62 | 221 | 3.0 | 6.0 | 0.00 | 0.00 | 0.00 | 58 | 998.1 |
| 20260904092527 | 63 | 77 | 3.0 | 6.0 | 0.00 | 0.00 | 0.00 | 55 | 998.2 |
| 20260904091526 | 64 | 89 | 3.0 | 8.0 | 0.00 | 0.00 | 0.00 | 55 | 998.2 |
| 20260904090524 | 63 | 112 | 4.0 | 8.0 | 0.00 | 0.00 | 0.00 | 60 | 998.3 |
| 20260904085524 | 63 | 78 | 2.0 | 6.0 | 0.00 | 0.00 | 0.00 | 57 | 998.3 |
| 20260904084522 | 63 | 138 | 3.0 | 6.0 | 0.00 | 0.00 | 0.00 | 58 | 998.3 |
| 20260904083541 | 63 | 57 | 2.0 | 6.0 | 0.00 | 0.00 | 0.00 | 60 | 998.3 |
| 20260904082521 | 62 | 215 | 3.0 | 6.0 | 0.00 | 0.00 | 0.00 | 61 | 998.3 |
| 20260904081519 | 62 | 135 | 3.0 | 6.0 | 0.00 | 0.00 | 0.00 | 65 | 998.3 |
| 20260904080519 | 61 | 119 | 4.0 | 7.0 | 0.00 | 0.00 | 0.00 | 65 | 998.4 |
| 20260904075518 | 60 | 118 | 3.0 | 7.0 | 0.00 | 0.00 | 0.00 | 72 | 998.4 |
| 20260904074517 | 59 | 113 | 3.0 | 6.0 | 0.00 | 0.00 | 0.00 | 74 | 998.5 |
| 20260904073547 | 59 | 121 | 4.0 | 6.0 | 0.00 | 0.00 | 0.00 | 79 | 998.5 |
| 20260904072545 | 58 | 123 | 4.0 | 7.0 | 0.00 | 0.00 | 0.00 | 87 | 998.6 |
| 20260904071604 | 57 | 117 | 4.0 | 7.0 | 0.00 | 0.00 | 0.00 | 89 | 998.7 |
| 20260904070543 | 57 | 133 | 4.0 | 5.0 | 0.00 | 0.00 | 0.00 | 90 | 998.7 |
| 20260904065542 | 55 | 131 | 4.0 | 5.0 | 0.00 | 0.00 | 0.00 | 92 | 998.8 |
| 20260904064620 | 56 | 128 | 3.0 | 5.0 | 0.00 | 0.00 | 0.00 | 93 | 999.0 |
| 20260904063559 | 55 | 126 | 4.0 | 6.0 | 0.00 | 0.00 | 0.00 | 97 | 999.0 |
| 20260904062538 | 54 | 126 | 3.0 | 5.0 | 0.00 | 0.00 | 0.00 | 98 | 999.0 |
| 20260904061540 | 53 | 122 | 3.0 | 5.0 | 0.00 | 0.00 | 0.00 | 99 | 999.1 |
| 20260904060538 | 52 | 121 | 3.0 | 5.0 | 0.00 | 0.00 | 0.00 | 99 | 999.2 |
| 20260904055538 | 52 | 118 | 3.0 | 6.0 | 0.00 | 0.00 | 0.00 | 99 | 999.2 |
| 20260904054556 | 51 | 116 | 4.0 | 6.0 | 0.00 | 0.00 | 0.00 | 99 | 999.2 |
| 20260904053534 | 50 | 116 | 4.0 | 5.0 | 0.00 | 0.00 | 0.00 | 99 | 999.2 |
| 20260904052532 | 49 | 112 | 4.0 | 6.0 | 0.00 | 0.00 | 0.00 | 98 | 999.3 |
| 20260904051531 | 49 | 115 | 4.0 | 6.0 | 0.00 | 0.00 | 0.00 | 98 | 999.3 |
| 20260904050533 | 49 | 112 | 4.0 | 5.0 | 0.00 | 0.00 | 0.00 | 99 | 999.3 |
| 20260904045531 | 49 | 115 | 4.0 | 6.0 | 0.00 | 0.00 | 0.00 | 98 | 999.4 |
| 20260904044551 | 49 | 118 | 4.0 | 6.0 | 0.00 | 0.00 | 0.00 | 98 | 999.5 |
| 20260904043531 | 49 | 130 | 4.0 | 6.0 | 0.00 | 0.00 | 0.00 | 98 | 999.7 |
| 20260904042528 | 50 | 125 | 2.0 | 4.0 | 0.00 | 0.00 | 0.00 | 98 | 999.8 |
| 20260904041527 | 49 | 117 | 3.0 | 5.0 | 0.00 | 0.00 | 0.00 | 98 | 999.9 |
| 20260904040527 | 49 | 125 | 3.0 | 5.0 | 0.00 | 0.00 | 0.00 | 98 | 1000.0 |
| 20260904035526 | 49 | 120 | 4.0 | 6.0 | 0.00 | 0.00 | 0.00 | 98 | 1000.2 |